Weather History for Ft Lauderdale, FL

Change the Weather History Date:

Tuesday, April 2, 2013

  Actual Average Record
Temperature  
Mean Temperature 74 °F 75 °F  
Max Temperature 82 °F 81 °F 92 °F (1954)
Min Temperature 66 °F 68 °F 45 °F (1925)
Degree Days  
Heating Degree Days 0 0  
Month to date heating degree days 0 0  
Since 1 July heating degree days 85 111  
Cooling Degree Days 9 10  
Month to date cooling degree days 23 20  
Year to date cooling degree days 612 630  
Growing Degree Days 24 (Base 50)    
Moisture  
Dew Point 65 °F    
Average Humidity 77    
Maximum Humidity 100    
Minimum Humidity 54    
Precipitation  
Precipitation 0.00 in 0.12 in 1.20 in (1947)
Month to date precipitation 0.18 0.26  
Year to date precipitation 3.39 10.21  
Snow  
Snow 0.00 in - - ()
Month to date snowfall 0.0  
Since 1 July snowfall 0.0  
Snow Depth 0.00 in    
Sea Level Pressure  
Sea Level Pressure 30.04 in    
Wind  
Wind Speed 7 mph (North)    
Max Wind Speed 14 mph    
Max Gust Speed 18 mph    
Visibility 8 miles    
Events Fog    
T = Trace of Precipitation, MM = Missing Value Source: NWS Daily Summary

Daily Weather History Graph

Daily Weather History Graph

Search for Another Location

Airport:

Trip Planner

Search our weather history database for the weather conditions in past years. The results will help you decide how hot, cold, wet, or windy it might be!

Date:

Astronomy

Apr. 02, 2013 Rise Set
Actual Time 7:10 AM EDT 7:38 PM EDT
Civil Twilight 6:47 AM EDT 8:01 PM EDT
Nautical Twilight 6:20 AM EDT 8:28 PM EDT
Astronomical Twilight 5:52 AM EDT 8:55 PM EDT
Moon 1:18 AM EDT (4/2) 12:22 PM EDT (4/2)
Length of Visible Light 13h 14m
Length of Day
12h 27m
Waning Gibbous, 56% of the Moon is Illuminated
Apr 2
Waning Gibbous
Apr 3
Last Quarter
Apr 10
New
Apr 18
First Quarter
Apr 25
Full

Hourly Weather History & Observations

Time (EDT) Temp. Heat Index Dew Point Humidity Pressure Visibility Wind Dir Wind Speed Gust Speed Precip Events Conditions
12:53 AM 71.1 °F - 64.0 °F 78% 30.03 in 10.0 mi WNW 5.8 mph - N/A   Clear
1:53 AM 70.0 °F - 64.9 °F 84% 30.03 in 10.0 mi NW 4.6 mph - N/A   Clear
2:53 AM 69.1 °F - 64.9 °F 87% 30.01 in 10.0 mi Calm Calm - N/A   Clear
3:53 AM 68.0 °F - 64.9 °F 90% 30.00 in 10.0 mi West 3.5 mph - N/A   Clear
4:53 AM 66.9 °F - 64.9 °F 93% 30.00 in 7.0 mi West 3.5 mph - N/A   Clear
5:41 AM 66.2 °F - 64.4 °F 94% 30.01 in 5.0 mi NW 3.5 mph - N/A   Scattered Clouds
5:53 AM 66.9 °F - 64.9 °F 93% 30.01 in 6.0 mi NW 4.6 mph - N/A   Partly Cloudy
6:41 AM 66.2 °F - 64.4 °F 94% 30.02 in 4.0 mi WNW 3.5 mph - N/A   Mostly Cloudy
6:47 AM 66.2 °F - 66.2 °F 100% 30.02 in 0.5 mi NW 5.8 mph - N/A   Overcast
6:53 AM 66.9 °F - 66.0 °F 97% 30.03 in 0.2 mi NW 6.9 mph - N/A Fog Fog
7:51 AM 66.2 °F - 66.2 °F 100% 30.05 in 1.0 mi NW 5.8 mph - N/A   Mostly Cloudy
7:53 AM 66.0 °F - 66.0 °F 100% 30.05 in 1.0 mi NW 5.8 mph - N/A   Mostly Cloudy
8:05 AM 66.2 °F - 66.2 °F 100% 30.05 in 2.5 mi NW 5.8 mph - N/A   Mostly Cloudy
8:53 AM 68.0 °F - 66.9 °F 96% 30.08 in 6.0 mi NW 4.6 mph - N/A   Scattered Clouds
9:53 AM 73.9 °F - 66.0 °F 76% 30.09 in 10.0 mi NNW 6.9 mph - N/A   Partly Cloudy
10:53 AM 79.0 °F - 62.1 °F 56% 30.09 in 10.0 mi Variable 6.9 mph - N/A   Clear
11:53 AM 80.1 °F 81.7 °F 64.0 °F 58% 30.09 in 10.0 mi Calm Calm - N/A   Partly Cloudy
12:53 PM 80.1 °F 81.9 °F 64.9 °F 60% 30.08 in 10.0 mi East 9.2 mph - N/A   Partly Cloudy
1:53 PM 80.1 °F 81.5 °F 63.0 °F 56% 30.05 in 10.0 mi East 13.8 mph - N/A   Partly Cloudy
2:53 PM 81.0 °F 82.2 °F 63.0 °F 54% 30.04 in 10.0 mi East 11.5 mph - N/A   Partly Cloudy
3:53 PM 81.0 °F 82.2 °F 63.0 °F 54% 30.02 in 10.0 mi ESE 11.5 mph - N/A   Partly Cloudy
4:53 PM 80.1 °F 81.7 °F 64.0 °F 58% 30.01 in 10.0 mi East 10.4 mph - N/A   Partly Cloudy
5:53 PM 78.1 °F - 66.0 °F 66% 30.02 in 10.0 mi East 10.4 mph - N/A   Partly Cloudy
6:53 PM 77.0 °F - 63.0 °F 62% 30.02 in 10.0 mi ENE 11.5 mph - N/A   Partly Cloudy
7:53 PM 75.9 °F - 64.0 °F 67% 30.03 in 10.0 mi ENE 9.2 mph - N/A   Partly Cloudy
8:53 PM 75.9 °F - 64.9 °F 69% 30.05 in 10.0 mi East 6.9 mph - N/A   Clear
9:53 PM 75.0 °F - 64.9 °F 71% 30.07 in 10.0 mi East 9.2 mph - N/A   Clear
10:53 PM 75.0 °F - 66.9 °F 76% 30.08 in 10.0 mi East 9.2 mph - N/A   Clear
11:53 PM 73.9 °F - 66.9 °F 79% 30.07 in 10.0 mi East 8.1 mph - N/A   Clear